Ras Al Khaimah, UAE

10:02 AM +04 on May 28, 2017 (GMT +0400)
Ras Al Khaimah International

Weather History for OMRK - November, 2013

Change the Weather History Date:

Saturday, November 23, 2013

  Actual Average Record
Temperature  
Mean Temperature 70 °F -  
Max Temperature 76 °F 81 °F 93 °F (2004)
Min Temperature 64 °F 58 °F 55 °F (2006)
Cooling Degree Days 5    
Growing Degree Days 20 (Base 50)    
Moisture  
Dew Point 63 °F    
Average Humidity 77    
Maximum Humidity 94    
Minimum Humidity 54    
Precipitation  
Precipitation 0.00 in 0.02 in - ()
Sea Level Pressure  
Sea Level Pressure 29.95 in    
Wind  
Wind Speed 6 mph ()    
Max Wind Speed 13 mph    
Max Gust Speed -    
Visibility 5.8 miles    
Events      
Averages and records for this station are not official NWS values.
T = Trace of Precipitation, MM = Missing Value Source: Averaged Metar Reports

Daily Weather History Graph

Daily Weather History Graph

Search for Another Location

Airport or City:

Trip Planner

Search our weather history database for the weather conditions in past years. The results will help you decide how hot, cold, wet, or windy it might be!

Date:

Astronomy

Nov. 23, 2013 Rise Set
Actual Time 6:39 AM +04 5:25 PM +04
Civil Twilight 6:15 AM +04 5:50 PM +04
Nautical Twilight 5:46 AM +04 6:18 PM +04
Astronomical Twilight 5:19 AM +04 6:45 PM +04
Moon 10:20 PM +04 (11/23) 10:52 AM +04 (11/23)
Length of Visible Light 11h 35m
Length of Day
10h 45m
Waning Gibbous, 73% of the Moon is Illuminated
Nov 23
Waning Gibbous
Nov 25
Last Quarter
Dec 3
New
Dec 9
First Quarter
Dec 17
Full

Hourly Weather History & Observations

Time (+04) Temp. Dew Point Humidity Pressure Visibility Wind Dir Wind Speed Gust Speed Precip Events Conditions
12:00 AM 68.0 °F 64.4 °F 88% 29.89 in 6.2 mi SSE 6.9 mph - N/A   Partly Cloudy
1:00 AM 67 °F 63 °F 84% 29.91 in 6 mi SSW 8.1 mph - -  
1:00 AM 68.0 °F 62.6 °F 83% 29.89 in 6.2 mi SSW 8.1 mph - N/A   Partly Cloudy
2:00 AM 68.0 °F 60.8 °F 78% 29.89 in 6.2 mi NE 3.5 mph - N/A   Partly Cloudy
3:00 AM 66.2 °F 62.6 °F 88% 29.89 in 6.2 mi SSE 5.8 mph - N/A   Partly Cloudy
4:00 AM 66 °F 61 °F 80% 29.91 in 6 mi SSE 4.6 mph - -  
4:00 AM 66.2 °F 60.8 °F 83% 29.89 in 6.2 mi SSE 4.6 mph - N/A   Partly Cloudy
5:00 AM 64.4 °F 60.8 °F 88% 29.92 in 6.2 mi South 4.6 mph - N/A   Partly Cloudy
6:00 AM - - N/A% 29.92 in 6.2 mi South 9.2 mph - N/A   Partly Cloudy
7:00 AM 66 °F 60 °F 74% 29.96 in 6 mi South 10.4 mph - -   Partly Cloudy
7:00 AM 66.2 °F 59.0 °F 78% 29.95 in 6.2 mi South 10.4 mph - N/A   Scattered Clouds
8:00 AM 66.2 °F 60.8 °F 83% 29.98 in 6.2 mi South 10.4 mph - N/A   Scattered Clouds
9:00 AM 69.8 °F 60.8 °F 73% 30.01 in 6.2 mi South 10.4 mph - N/A   Scattered Clouds
10:00 AM 71 °F 62 °F 67% 30.01 in 6 mi SSW 12.7 mph - -   Scattered Clouds
10:00 AM 71.6 °F 62.6 °F 73% 30.01 in 6.2 mi SSW 12.7 mph - N/A   Partly Cloudy
11:00 AM 73.4 °F 64.4 °F 73% 29.98 in 6.2 mi South 8.1 mph - N/A   Partly Cloudy
12:00 PM 75.2 °F 64.4 °F 69% 29.98 in 6.2 mi SSW 6.9 mph - N/A   Scattered Clouds
1:00 PM 76 °F 63 °F 54% 29.95 in 6 mi SW 2.3 mph - -   Partly Cloudy
1:00 PM 75.2 °F 62.6 °F 65% 29.95 in 6.2 mi SW 2.3 mph - N/A   Scattered Clouds
2:00 PM 73.4 °F 64.4 °F 73% 29.95 in 6.2 mi West 5.8 mph - N/A   Scattered Clouds
3:00 PM 75.2 °F 62.6 °F 65% 29.92 in 6.2 mi West 5.8 mph - N/A   Scattered Clouds
4:00 PM 75 °F 63 °F 58% 29.93 in 6 mi Calm Calm - -   Partly Cloudy
4:00 PM 75.2 °F 62.6 °F 65% 29.92 in 6.2 mi Calm Calm - N/A   Scattered Clouds
5:00 PM 75.2 °F 62.6 °F 65% 29.92 in 6.2 mi NW 2.3 mph - N/A   Partly Cloudy
6:00 PM 71.6 °F 64.4 °F 78% 29.95 in 6.2 mi West 3.5 mph - N/A   Partly Cloudy
7:00 PM 69.8 °F 64.4 °F 83% 29.95 in 6.2 mi NW 2.3 mph - N/A   Partly Cloudy
8:00 PM 68.0 °F 64.4 °F 88% 29.98 in 5.0 mi SSW 2.3 mph - N/A   Partly Cloudy
9:00 PM 68.0 °F 64.4 °F 88% 29.98 in 3.7 mi SSW 2.3 mph - N/A   Partly Cloudy
10:00 PM 67 °F 64 °F 87% 30.00 in 4 mi SSW 6.9 mph - -   Scattered Clouds
10:00 PM 66.2 °F 64.4 °F 94% 29.98 in 3.7 mi SSW 6.9 mph - N/A   Partly Cloudy
11:00 PM 66.2 °F 62.6 °F 88% 29.98 in 3.7 mi SSW 4.6 mph - N/A   Partly Cloudy